When you browse on this site, cookies collect data to enhance your experience and personalize the content and advertising you see.
Visit our Privacy Policy to learn more. By continuing to use the site, you agree to this use of cookies and data.
EN

Hourly Weather Vanadzor

Today, 5 July, Sunday

Time Temperature Precipitation Wind Pressure Humidity
00:00 +14°C° 0 mm 1 mps 635 mmHg 89%
01:00 +14°C° 0 mm 1 mps 635 mmHg 88%
02:00 +13°C° 0 mm 1 mps 634 mmHg 87%
03:00 +13°C° 0 mm 1 mps 634 mmHg 86%
04:00 +14°C° 0 mm 1 mps 634 mmHg 86%
05:00 +14°C° 0 mm 1 mps 634 mmHg 85%
06:00 +15°C° 0 mm 1 mps 635 mmHg 85%
07:00 +18°C° 0 mm 1 mps 635 mmHg 80%
08:00 +18°C° 0 mm 2 mps 635 mmHg 76%
09:00 +20°C° 0 mm 2 mps 636 mmHg 71%
10:00 +20°C° 0.2 mm 2 mps 636 mmHg 70%
11:00 +21°C° 0.2 mm 2 mps 636 mmHg 70%
12:00 +22°C° 0.2 mm 3 mps 635 mmHg 69%
13:00 +23°C° 0.3 mm 2 mps 635 mmHg 69%
14:00 +23°C° 0.3 mm 2 mps 635 mmHg 68%
15:00 +23°C° 0.3 mm 2 mps 635 mmHg 68%
16:00 +23°C° 0.3 mm 2 mps 634 mmHg 71%
17:00 +21°C° 0.3 mm 2 mps 634 mmHg 75%
18:00 +21°C° 0.3 mm 2 mps 634 mmHg 78%
19:00 +19°C° 0.1 mm 2 mps 634 mmHg 81%
20:00 +18°C° 0.1 mm 1 mps 634 mmHg 83%
21:00 +15°C° 0.1 mm 1 mps 633 mmHg 86%
22:00 +15°C° 0 mm 1 mps 633 mmHg 85%
23:00 +15°C° 0 mm 1 mps 633 mmHg 84%

Tomorrow, 6 July, Monday

Time Temperature Precipitation Wind Pressure Humidity
00:00 +14°C° 0 mm 1 mps 633 mmHg 83%
01:00 +14°C° 0 mm 1 mps 633 mmHg 82%
02:00 +14°C° 0 mm 1 mps 633 mmHg 81%
03:00 +13°C° 0 mm 1 mps 633 mmHg 80%
04:00 +14°C° 0 mm 1 mps 633 mmHg 80%
05:00 +15°C° 0 mm 1 mps 633 mmHg 81%
06:00 +15°C° 0 mm 1 mps 634 mmHg 81%
07:00 +18°C° 0 mm 1 mps 634 mmHg 76%
08:00 +18°C° 0 mm 2 mps 634 mmHg 70%
09:00 +20°C° 0 mm 2 mps 635 mmHg 65%
10:00 +21°C° 0 mm 2 mps 635 mmHg 63%
11:00 +23°C° 0 mm 2 mps 635 mmHg 61%
12:00 +24°C° 0 mm 3 mps 635 mmHg 60%
13:00 +24°C° 0.1 mm 3 mps 634 mmHg 60%
14:00 +24°C° 0.1 mm 3 mps 634 mmHg 60%
15:00 +24°C° 0.1 mm 3 mps 634 mmHg 61%
16:00 +24°C° 0.1 mm 2 mps 634 mmHg 65%
17:00 +23°C° 0.1 mm 2 mps 634 mmHg 70%
18:00 +23°C° 0.1 mm 2 mps 633 mmHg 74%
19:00 +20°C° 0.1 mm 2 mps 633 mmHg 75%
20:00 +19°C° 0.1 mm 1 mps 633 mmHg 77%
21:00 +16°C° 0.1 mm 1 mps 633 mmHg 78%
22:00 +16°C° 0 mm 1 mps 633 mmHg 75%
23:00 +16°C° 0 mm 1 mps 633 mmHg 72%

Day after tomorrow, 7 July, Tuesday

Time Temperature Precipitation Wind Pressure Humidity
00:00 +15°C° 0 mm 1 mps 633 mmHg 70%
01:00 +15°C° 0 mm 1 mps 633 mmHg 70%
02:00 +15°C° 0 mm 1 mps 632 mmHg 69%
03:00 +14°C° 0 mm 1 mps 632 mmHg 69%
04:00 +15°C° 0 mm 1 mps 633 mmHg 71%
05:00 +16°C° 0 mm 1 mps 633 mmHg 72%
06:00 +16°C° 0 mm 1 mps 633 mmHg 73%
07:00 +19°C° 0 mm 1 mps 634 mmHg 69%
08:00 +21°C° 0 mm 1 mps 634 mmHg 64%
09:00 +23°C° 0 mm 1 mps 635 mmHg 59%
10:00 +24°C° 0 mm 2 mps 635 mmHg 58%
11:00 +25°C° 0 mm 2 mps 635 mmHg 58%
12:00 +26°C° 0 mm 2 mps 635 mmHg 57%
13:00 +26°C° 0.4 mm 2 mps 634 mmHg 58%
14:00 +26°C° 0.4 mm 2 mps 634 mmHg 59%
15:00 +26°C° 0.4 mm 2 mps 634 mmHg 60%
16:00 +26°C° 0.5 mm 2 mps 634 mmHg 65%
17:00 +25°C° 0.5 mm 2 mps 634 mmHg 70%
18:00 +25°C° 0.5 mm 2 mps 633 mmHg 75%
19:00 +23°C° 0.1 mm 1 mps 633 mmHg 77%
20:00 +21°C° 0.1 mm 1 mps 633 mmHg 78%
21:00 +19°C° 0.1 mm 1 mps 633 mmHg 80%
22:00 +18°C° 0 mm 1 mps 633 mmHg 80%
23:00 +18°C° 0 mm 1 mps 633 mmHg 79%

8 July, Wednesday

Time Temperature Precipitation Wind Pressure Humidity
00:00 +18°C° 0 mm 1 mps 633 mmHg 79%
01:00 +16°C° 0 mm 1 mps 633 mmHg 78%
02:00 +16°C° 0 mm 1 mps 633 mmHg 77%
03:00 +16°C° 0 mm 1 mps 632 mmHg 77%
04:00 +16°C° 0 mm 1 mps 633 mmHg 76%
05:00 +18°C° 0 mm 1 mps 633 mmHg 76%
06:00 +19°C° 0 mm 1 mps 633 mmHg 75%
07:00 +21°C° 0 mm 1 mps 634 mmHg 70%
08:00 +21°C° 0 mm 0 mps 634 mmHg 65%
09:00 +23°C° 0 mm 0 mps 635 mmHg 60%
10:00 +26°C° 0.1 mm 1 mps 635 mmHg 59%
11:00 +26°C° 0.1 mm 1 mps 635 mmHg 57%
12:00 +27°C° 0.1 mm 2 mps 635 mmHg 56%
13:00 +27°C° 0.3 mm 2 mps 635 mmHg 58%
14:00 +27°C° 0.3 mm 2 mps 634 mmHg 59%
15:00 +27°C° 0.3 mm 2 mps 634 mmHg 61%
16:00 +26°C° 0.7 mm 2 mps 634 mmHg 67%
17:00 +24°C° 0.7 mm 2 mps 633 mmHg 74%
18:00 +23°C° 0.7 mm 1 mps 633 mmHg 80%
19:00 +21°C° 0.2 mm 1 mps 633 mmHg 83%
20:00 +19°C° 0.2 mm 1 mps 633 mmHg 86%
21:00 +18°C° 0.2 mm 1 mps 633 mmHg 89%
22:00 +18°C° 0.4 mm 1 mps 633 mmHg 89%
23:00 +18°C° 0.4 mm 1 mps 633 mmHg 89%

9 July, Thursday

Time Temperature Precipitation Wind Pressure Humidity
00:00 +16°C° 0.4 mm 1 mps 633 mmHg 89%
01:00 +16°C° 0 mm 1 mps 633 mmHg 87%
02:00 +16°C° 0 mm 1 mps 633 mmHg 85%
03:00 +16°C° 0 mm 1 mps 633 mmHg 83%
04:00 +18°C° 0 mm 1 mps 633 mmHg 82%
05:00 +19°C° 0 mm 1 mps 633 mmHg 81%
06:00 +17°C° 0 mm 0 mps 634 mmHg 80%
07:00 +21°C° 0 mm 1 mps 634 mmHg 75%
08:00 +23°C° 0 mm 1 mps 634 mmHg 70%
09:00 +24°C° 0 mm 1 mps 635 mmHg 66%
10:00 +25°C° 0.4 mm 1 mps 635 mmHg 63%
11:00 +26°C° 0.4 mm 1 mps 635 mmHg 61%
12:00 +27°C° 0.4 mm 2 mps 635 mmHg 58%
13:00 +27°C° 0.7 mm 2 mps 635 mmHg 60%
14:00 +27°C° 0.7 mm 2 mps 634 mmHg 61%
15:00 +27°C° 0.7 mm 2 mps 634 mmHg 62%
16:00 +25°C° 1.1 mm 2 mps 634 mmHg 70%
17:00 +23°C° 1.1 mm 2 mps 633 mmHg 79%
18:00 +19°C° 1.1 mm 3 mps 633 mmHg 87%
19:00 +19°C° 0.2 mm 2 mps 633 mmHg 86%
20:00 +18°C° 0.2 mm 2 mps 634 mmHg 84%
21:00 +17°C° 0.2 mm 2 mps 634 mmHg 83%
22:00 +17°C° 0 mm 2 mps 634 mmHg 80%
23:00 +19°C° 0 mm 1 mps 634 mmHg 77%

10 July, Friday

Time Temperature Precipitation Wind Pressure Humidity
00:00 +19°C° 0 mm 1 mps 634 mmHg 75%
01:00 +18°C° 0 mm 1 mps 634 mmHg 75%
02:00 +16°C° 0 mm 1 mps 634 mmHg 76%
03:00 +14°C° 0 mm 0 mps 634 mmHg 77%
04:00 +16°C° 0 mm 1 mps 634 mmHg 77%
05:00 +18°C° 0 mm 1 mps 634 mmHg 77%
06:00 +19°C° 0 mm 1 mps 634 mmHg 78%
07:00 +20°C° 0 mm 1 mps 635 mmHg 74%
08:00 +22°C° 0 mm 1 mps 635 mmHg 69%
09:00 +24°C° 0 mm 1 mps 636 mmHg 65%
10:00 +25°C° 0.3 mm 1 mps 636 mmHg 63%
11:00 +26°C° 0.3 mm 2 mps 636 mmHg 62%
12:00 +27°C° 0.3 mm 2 mps 636 mmHg 60%
13:00 +27°C° 1 mm 2 mps 635 mmHg 60%
14:00 +27°C° 1 mm 2 mps 635 mmHg 60%
15:00 +27°C° 1 mm 2 mps 635 mmHg 60%
16:00 +26°C° 0.9 mm 2 mps 635 mmHg 65%
17:00 +25°C° 0.9 mm 2 mps 635 mmHg 70%
18:00 +25°C° 0.9 mm 1 mps 635 mmHg 74%
19:00 +23°C° 1.2 mm 1 mps 635 mmHg 78%
20:00 +21°C° 1.2 mm 1 mps 635 mmHg 82%
21:00 +19°C° 1.2 mm 1 mps 635 mmHg 86%
22:00 +19°C° 0.7 mm 1 mps 635 mmHg 85%
23:00 +18°C° 0.7 mm 1 mps 634 mmHg 84%
Show more